Location: �bnet
(46.9957°N, 8.4908°E)
Time: 01:20:10
(UTC+00:00)

Cosmos 1656 Rocket - Pass Details

Date: 11 May 2021
Orbit: 794 x 848 km, 71.1° (Epoch: 23 June)

Event Time Altitude Azimuth Distance (km) Brightness Sun altitude
Exits shadow 22:35:31 35° 102° (ESE) 1,287 4.4 -24.0°
Drops below altitude 10° 22:40:18 10° 42° (NE) 2,414 6.5 -24.2°
Sets 22:42:55 0° 34° (NE) 3,360 7.5 -24.3°
